Regional Weather Roundup
Issued by NWS Albany, NY

Current Version | Previous Version | Graphics & Text | Print | Product List | Glossary Off
Versions: 1 2 3 4 5 6 7 8 9 10 11 12 13 14 15 16 17 18 19 20 21 22 23 24 25 26 27 28 29 30 31 32 33 34 35 36 37 38 39 40 41 42 43 44 45 46 47 48 49 50

000
ASUS41 KALY 021810
RWRALY

NEW YORK STATE HOURLY WEATHER ROUNDUP
NATIONAL WEATHER SERVICE ALBANY NY
200 PM EDT SUN AUG 02 2015

NOTE: "FAIR" INDICATES FEW OR NO CLOUDS BELOW 12,000 FEET WITH NO
SIGNIFICANT WEATHER AND/OR NO OBSTRUCTIONS TO VISIBILITY.

NYZ032-033-038>043-046>054-057>066-NYZ062>081-021900-
EAST


CITY           SKY/WX    TMP DP  RH WIND       PRES   REMARKS
ALBANY         PTSUNNY   85  57  38 SW8G20    29.86F
GLENS FALLS    SUNNY     80  60  50 S12       29.85F
POUGHKEEPSIE   PTSUNNY   87  51  28 SW12G18   29.88F
NEWBURGH       MOSUNNY   84  54  34 W12       29.91F
MONTGOMERY     MOSUNNY   84  56  38 SW8       29.89F
WHITE PLAINS   MOSUNNY   80  57  45 SE5       29.91F
ISLIP          MOSUNNY   83  62  49 S14       29.91F
NEW YORK CITY  PTSUNNY   87  55  33 SE13G20   29.89F
CENTRAL PARK   MOSUNNY   88  51  28 VRB6      29.92F
$$

NYZ005>009-017-018-044>046-055-056-021900-
CENTRAL


CITY           SKY/WX    TMP DP  RH WIND       PRES   REMARKS
FULTON         SUNNY     83  60  45 SW14      29.86R
SYRACUSE       MOSUNNY   83  57  41 W12G21    29.85R
ROME           MOSUNNY   81  58  45 W6        29.87S
ELMIRA         MOSUNNY   83  55  38 W10       29.88S
BINGHAMTON     SUNNY     77  53  43 SW12      29.92F
MONTICELLO     MOSUNNY   79  55  44 MISG      29.95F
$$

NYZ026>034-041>043-021900-
NORTH


CITY           SKY/WX    TMP DP  RH WIND       PRES   REMARKS
WATERTOWN      SUNNY     79  65  62 W17       29.84R
FORT DRUM      NOT AVBL
MASSENA        MOSUNNY   80  60  50 SW10G21   29.80F
SARANAC LAKE   MOSUNNY   77  54  44 SW8G20    29.86F
PLATTSBURGH    MOSUNNY   79  62  56 SE17G23   29.81F
$$

NYZ001>004-010>016-019>021-021900-
WEST


CITY           SKY/WX    TMP DP  RH WIND       PRES   REMARKS
NIAGARA FALLS  MOSUNNY   80  56  43 SW18G25   29.83F
BUFFALO        MOSUNNY   79  53  40 SW18G24   29.86S
DUNKIRK        SUNNY     81  56  42 W10       29.88F
JAMESTOWN      SUNNY     77  52  41 SW9       29.94S
WELLSVILLE     SUNNY     79  51  37 W14G22    29.97R
ROCHESTER      MOSUNNY   82  54  37 SW16      29.85F
PENN YAN       MOSUNNY   81  52  36 SW5       29.89S
$$

             KEY
       WCI = WIND CHILL INDEX
       VSB = VISIBILITY
       HX  = HEAT INDEX
$$


USA.gov is the U.S. government's official web portal to all federal, state and local government web resources and services.